Weather History for Sanford, NC

Change the Weather History Date:

Friday, April 12, 2013

  Actual Average (KRDU) Record (KRDU)
Temperature  
Mean Temperature 74 °F 59 °F  
Max Temperature 81 °F 72 °F 94 °F (1930)
Min Temperature 65 °F 47 °F 26 °F (1973)
Degree Days  
Heating Degree Days 0 7  
Month to date heating degree days 98  
Since 1 July heating degree days 3094  
Cooling Degree Days 8 1  
Month to date cooling degree days 12  
Year to date cooling degree days 24  
Growing Degree Days 24 (Base 50)    
Moisture  
Dew Point 62 °F    
Average Humidity 70    
Maximum Humidity 94    
Minimum Humidity 42    
Precipitation  
Precipitation 0.54 in 0.10 in 1.65 in (1959)
Month to date precipitation 1.25  
Year to date precipitation 12.09  
Snow  
Snow 0.00 in 0.00 in T in (1918)
Month to date snowfall 0.1  
Since 1 July snowfall 6.1  
Snow Depth -    
Sea Level Pressure  
Sea Level Pressure 29.71 in    
Wind  
Wind Speed 11 mph (SSW)    
Max Wind Speed 17 mph    
Max Gust Speed 26 mph    
Visibility 10 miles    
Events Rain    
T = Trace of Precipitation, MM = Missing Value Source: NWS Daily Summary

Daily Weather History Graph

Daily Weather History Graph

Search for Another Location

Airport:

Trip Planner

Search our weather history database for the weather conditions in past years. The results will help you decide how hot, cold, wet, or windy it might be!

Date:

Astronomy

Apr. 12, 2013 Rise Set
Actual Time 6:47 AM EDT 7:47 PM EDT
Civil Twilight 6:21 AM EDT 8:13 PM EDT
Nautical Twilight 5:50 AM EDT 8:44 PM EDT
Astronomical Twilight 5:18 AM EDT 9:16 PM EDT
Moon 8:00 AM EDT (4/12) 10:11 PM EDT (4/12)
Length of Visible Light 13h 52m
Length of Day
12h 59m
Waxing Crescent, 5% of the Moon is Illuminated
Apr 12
Waxing Crescent
Apr 18
First Quarter
Apr 25
Full
May 2
Last Quarter
May 9
New

Hourly Weather History & Observations

Time (EDT) Temp. Heat Index Dew Point Humidity Pressure Visibility Wind Dir Wind Speed Gust Speed Precip Events Conditions
12:15 AM 71.6 °F - 64.8 °F 79% 29.82 in 10.0 mi South 12.7 mph 19.6 mph N/A   Scattered Clouds
12:35 AM 71.2 °F - 64.9 °F 80% 29.82 in 10.0 mi South 10.4 mph 16.1 mph N/A   Scattered Clouds
12:55 AM 71.2 °F - 64.9 °F 80% 29.81 in 10.0 mi South 9.2 mph 16.1 mph N/A   Scattered Clouds
1:15 AM 71.2 °F - 65.3 °F 81% 29.81 in 10.0 mi South 10.4 mph 20.7 mph N/A   Mostly Cloudy
1:35 AM 71.2 °F - 65.3 °F 81% 29.81 in 10.0 mi South 10.4 mph 17.3 mph N/A   Overcast
1:55 AM 71.4 °F - 65.3 °F 81% 29.80 in 10.0 mi South 12.7 mph 20.7 mph N/A   Overcast
2:15 AM 71.2 °F - 64.9 °F 80% 29.79 in 10.0 mi South 11.5 mph 20.7 mph N/A   Overcast
2:35 AM 71.2 °F - 64.8 °F 80% 29.78 in 10.0 mi South 11.5 mph 17.3 mph N/A   Overcast
2:55 AM 71.4 °F - 64.6 °F 79% 29.77 in 10.0 mi SSE 10.4 mph - N/A   Overcast
3:15 AM 71.4 °F - 64.6 °F 79% 29.76 in 10.0 mi South 15.0 mph 24.2 mph N/A   Overcast
3:35 AM 71.4 °F - 64.4 °F 78% 29.75 in 10.0 mi SSE 12.7 mph - N/A   Overcast
3:55 AM 71.2 °F - 64.4 °F 79% 29.74 in 10.0 mi South 10.4 mph 19.6 mph N/A   Overcast
4:15 AM 71.6 °F - 64.4 °F 78% 29.74 in 10.0 mi South 11.5 mph 23.0 mph N/A   Overcast
4:35 AM 71.6 °F - 64.4 °F 78% 29.74 in 10.0 mi South 15.0 mph 20.7 mph N/A   Overcast
4:55 AM 70.3 °F - 64.9 °F 83% 29.75 in 7.0 mi South 10.4 mph 19.6 mph N/A Rain Heavy Rain
5:15 AM 68.4 °F - 65.7 °F 91% 29.74 in 10.0 mi South 8.1 mph 17.3 mph 0.07 in Rain Rain
5:35 AM 68.0 °F - 65.7 °F 92% 29.73 in 10.0 mi SSE 9.2 mph - 0.08 in Rain Light Rain
5:55 AM 68.0 °F - 65.8 °F 93% 29.72 in 10.0 mi SSE 11.5 mph 17.3 mph 0.10 in Rain Light Rain
6:15 AM 68.0 °F - 65.7 °F 92% 29.73 in 10.0 mi South 12.7 mph 19.6 mph N/A   Overcast
6:35 AM 67.6 °F - 65.5 °F 93% 29.73 in 10.0 mi SSE 11.5 mph - 0.02 in   Overcast
6:55 AM 67.6 °F - 65.5 °F 93% 29.73 in 5.0 mi South 15.0 mph 20.7 mph 0.07 in Rain Heavy Rain
7:15 AM 67.5 °F - 65.5 °F 93% 29.74 in 10.0 mi South 9.2 mph - 0.02 in   Overcast
7:35 AM 67.3 °F - 64.9 °F 92% 29.74 in 10.0 mi South 9.2 mph - 0.03 in Rain Light Rain
7:55 AM 66.9 °F - 65.1 °F 94% 29.74 in 10.0 mi SSE 9.2 mph 18.4 mph 0.06 in Rain Light Rain
8:15 AM 67.6 °F - 65.7 °F 93% 29.74 in 10.0 mi South 9.2 mph 18.4 mph N/A   Mostly Cloudy
8:35 AM 68.0 °F - 66.0 °F 93% 29.73 in 10.0 mi South 11.5 mph - N/A   Overcast
8:55 AM 68.5 °F - 66.2 °F 92% 29.73 in 10.0 mi South 11.5 mph - N/A   Overcast
9:15 AM 68.9 °F - 66.4 °F 92% 29.73 in 10.0 mi South 11.5 mph 17.3 mph N/A   Overcast
9:35 AM 70.0 °F - 66.4 °F 88% 29.73 in 10.0 mi South 11.5 mph 20.7 mph N/A   Overcast
9:55 AM 70.2 °F - 67.3 °F 91% 29.73 in 10.0 mi South 8.1 mph - N/A   Overcast
10:15 AM 72.7 °F - 67.5 °F 84% 29.73 in 10.0 mi South 11.5 mph 16.1 mph N/A   Overcast
10:55 AM 73.0 °F - 67.1 °F 82% 29.72 in 10.0 mi South 8.1 mph - N/A   Overcast
11:15 AM 74.1 °F - 66.7 °F 78% 29.73 in 10.0 mi SSW 9.2 mph - N/A   Overcast
11:35 AM 75.7 °F - 66.7 °F 74% 29.72 in 10.0 mi SSW 11.5 mph 19.6 mph N/A   Mostly Cloudy
11:55 AM 76.8 °F - 66.2 °F 70% 29.71 in 10.0 mi SSW 12.7 mph 17.3 mph N/A   Mostly Cloudy
12:15 PM 77.2 °F - 66.6 °F 70% 29.70 in 10.0 mi SSW 11.5 mph 19.6 mph N/A   Mostly Cloudy
12:35 PM 74.3 °F - 67.1 °F 78% 29.72 in 5.0 mi West 11.5 mph 16.1 mph 0.03 in Rain Heavy Rain
12:55 PM 69.8 °F - 66.9 °F 91% 29.71 in 5.0 mi SW 9.2 mph - 0.26 in Rain Light Rain
1:15 PM 70.0 °F - 66.9 °F 90% 29.70 in 10.0 mi SSW 6.9 mph - 0.05 in   Light Drizzle
1:35 PM 71.6 °F - 67.6 °F 87% 29.70 in 10.0 mi SSW 8.1 mph - 0.05 in   Scattered Clouds
1:55 PM 73.6 °F - 67.3 °F 81% 29.69 in 10.0 mi SSW 6.9 mph - 0.05 in   Scattered Clouds
2:15 PM 76.5 °F - 67.8 °F 75% 29.68 in 10.0 mi SW 8.1 mph - N/A   Scattered Clouds
2:35 PM 76.5 °F - 66.2 °F 70% 29.68 in 10.0 mi SW 5.8 mph - N/A   Mostly Cloudy
2:55 PM 77.9 °F - 66.7 °F 68% 29.67 in 10.0 mi South 6.9 mph - N/A   Mostly Cloudy
3:15 PM 79.2 °F - 66.7 °F 66% 29.66 in 10.0 mi SW 11.5 mph 16.1 mph N/A   Scattered Clouds
3:35 PM 80.6 °F 81.6 °F 61.5 °F 52% 29.65 in 10.0 mi WSW 15.0 mph 23.0 mph N/A   Clear
3:55 PM 80.1 °F 81.0 °F 60.4 °F 51% 29.64 in 10.0 mi WSW 17.3 mph 23.0 mph N/A   Clear
4:15 PM 80.8 °F 81.6 °F 61.2 °F 51% 29.63 in 10.0 mi SSW 17.3 mph 26.5 mph N/A   Clear
4:35 PM 81.3 °F 81.8 °F 59.9 °F 48% 29.62 in 10.0 mi SW 17.3 mph 26.5 mph N/A   Clear
4:55 PM 81.7 °F 82.2 °F 60.4 °F 48% 29.63 in 10.0 mi SSW 15.0 mph 23.0 mph N/A   Scattered Clouds
5:15 PM 81.5 °F 81.6 °F 58.5 °F 45% 29.63 in 10.0 mi SSW 13.8 mph 23.0 mph N/A   Scattered Clouds
5:35 PM 81.0 °F 81.1 °F 57.6 °F 45% 29.63 in 10.0 mi SSW 16.1 mph 20.7 mph N/A   Scattered Clouds
5:55 PM 81.0 °F 81.0 °F 57.2 °F 44% 29.63 in 10.0 mi SW 11.5 mph 19.6 mph N/A   Clear
6:15 PM 80.6 °F 80.5 °F 55.6 °F 42% 29.62 in 10.0 mi SSW 9.2 mph 21.9 mph N/A   Clear
6:35 PM 79.7 °F - 56.5 °F 45% 29.63 in 10.0 mi SSW 13.8 mph 18.4 mph N/A   Clear
6:55 PM 79.2 °F - 55.2 °F 44% 29.63 in 10.0 mi SW 10.4 mph 18.4 mph N/A   Clear
7:15 PM 78.4 °F - 53.4 °F 42% 29.64 in 10.0 mi SSW 11.5 mph 19.6 mph N/A   Clear
7:35 PM 77.0 °F - 54.1 °F 45% 29.66 in 10.0 mi SSW 10.4 mph - N/A   Clear
7:55 PM 74.1 °F - 55.4 °F 52% 29.66 in 10.0 mi SSW 5.8 mph - N/A   Clear
8:15 PM 73.2 °F - 54.9 °F 52% 29.66 in 10.0 mi SSW 5.8 mph - N/A   Clear
8:35 PM 72.5 °F - 54.0 °F 52% 29.67 in 10.0 mi SSW 5.8 mph - N/A   Clear
8:55 PM 71.4 °F - 53.2 °F 53% 29.68 in 10.0 mi SSW 5.8 mph - N/A   Clear
9:15 PM 72.1 °F - 51.3 °F 48% 29.68 in 10.0 mi SW 6.9 mph - N/A   Clear
9:35 PM 72.5 °F - 49.6 °F 44% 29.71 in 10.0 mi West 5.8 mph - N/A   Clear
9:55 PM 72.0 °F - 49.6 °F 45% 29.71 in 10.0 mi SW 8.1 mph - N/A   Clear
10:15 PM 71.1 °F - 49.3 °F 46% 29.72 in 10.0 mi WSW 4.6 mph - N/A   Clear
10:35 PM 69.4 °F - 49.5 °F 49% 29.73 in 10.0 mi WSW 4.6 mph - N/A   Clear
10:55 PM 68.5 °F - 49.6 °F 51% 29.74 in 10.0 mi SW 4.6 mph - N/A   Clear
11:15 PM 67.1 °F - 49.6 °F 53% 29.75 in 10.0 mi West 6.9 mph - N/A   Clear
11:35 PM 67.8 °F - 48.7 °F 50% 29.76 in 10.0 mi West 3.5 mph - N/A   Clear
11:55 PM 65.5 °F - 48.9 °F 55% 29.78 in 10.0 mi West 5.8 mph - N/A   Clear